Regional Weather Roundup
Issued by NWS Northern Indiana

Home | Current Version | Previous Version | Graphics & Text | Print | Product List | Glossary On
Versions: 1 2 3 4 5 6 7 8 9 10 11 12 13 14 15 16 17 18 19 20 21 22 23 24 25 26 27 28 29 30 31 32 33 34 35 36 37 38 39 40 41 42 43 44 45 46 47 48 49 50
381
ASUS43 KIWX 261110
RWRIWX

KIWX WEATHER ROUNDUP
NATIONAL WEATHER SERVICE NORTHERN INDIANA
700 AM EDT MON SEP 26 2016

NOTE: "FAIR" INDICATES FEW OR NO CLOUDS BELOW 12,000 FEET WITH NO
SIGNIFICANT WEATHER AND/OR OBSTRUCTIONS TO VISIBILITY.

* THESE STATIONS ARE NOT UNDER NWS QUALITY CONTROL. THEY ALSO MAY NOT
  REPORT WEATHER SUCH AS PRECIPITATION OR FOG.

INZ001>027-261200-
NORTHERN INDIANA

CITY           SKY/WX    TMP DP  RH WIND       PRES   REMARKS
GARY*          MOCLDY    61  55  82 W12       30.01R
VALPARAISO     CLOUDY    58  56  93 W9        29.99R
MICHIGAN CITY* CLOUDY    59  55  88 MISG      29.99R
LAPORTE*       DRIZZLE  N/A N/A N/A W7        30.00R
KNOX*          CLOUDY    57  45  62 SW6       29.98F
SOUTH BEND     LGT RAIN  58  57  97 S6        29.95S
ELKHART*       LGT RAIN N/A N/A N/A SW7       29.96
GOSHEN         LGT RAIN  60  56  86 W9        29.97R
MONTICELLO*    LGT RAIN  58  54  87 W5        30.02R
LOGANSPORT*    LGT RAIN  55  55 100 W5        30.01S
ROCHESTER*     LGT RAIN  61  61 100 W6        29.99F
WARSAW*        RAIN      59  54  82 W9        29.99S
ANGOLA*          N/A     61  52  72 NW8       29.95R
FORT WAYNE     CLOUDY    63  57  81 W13G21    29.96R
HUNTINGTON*    CLOUDY    61  58  91 W8G16     29.98R
PERU/GRISSOM   DRIZZLE   58  58 100 W10       29.98F
MARION*        RAIN      60  55  85 NW8G22    30.00S

$$
INZ028>050-261200-
CENTRAL INDIANA

CITY           SKY/WX    TMP DP  RH WIND       PRES   REMARKS
LAFAYETTE      LGT RAIN  58  57  97 W8        30.03R
MUNCIE*        CLOUDY    63  57  81 NW10G20   29.98R
INDIANAPOLIS   CLOUDY    60  57  89 W8        30.04R

$$
MIZ043>046-050>051-056>058-064>065-071>073-077>080-261200-
SOUTHWEST LOWER MICHIGAN

CITY           SKY/WX    TMP DP  RH WIND       PRES   REMARKS
BATTLE CREEK   LGT RAIN  60  58  92 SW8       29.93R
BENTON HARBOR  CLOUDY    62  54  74 W13G21    29.94R
COLDWATER*     LGT RAIN  60  59  96 W8        29.95R
HILLSDALE*     CLOUDY    61  59  94 W9        29.92S
HOLLAND        CLOUDY    61  55  81 W12       29.92S
GRAND RAPIDS   LGT RAIN  60  58  92 SW10      29.89S
KALAMAZOO      LGT RAIN  60  56  86 SW6       29.92F
STURGIS*       HVY RAIN  59  57  92 W6        29.95S
THREE RIVERS*  LGT RAIN  60  58  92 W7        29.96R

$$
OHZ001>008-015>018-024>025-261200-
NORTHWEST OHIO

CITY           SKY/WX    TMP DP  RH WIND       PRES   REMARKS
WAUSEON*       CLOUDY    63  59  88 NW16G26   29.90R
DEFIANCE       LGT RAIN  63  57  81 W14G23    29.95R
FINDLAY        LGT RAIN  68  62  81 S8        29.88F
TOLEDO EXPRESS LGT RAIN  65  64  97 W7        29.87S
TOLEDO METCALF CLOUDY    66  62  87 SW8       29.88S
LIMA           MOCLDY    68  67  96 SW10      29.91F

$$
AND FOR LAKE MICHIGAN COASTAL AND OPEN LAKE BUOY OBSERVATIONS

STATION/POSITION TEMP    WIND        PRES    VSBY  WAVE
                 AIR SEA DIR/SP/G                  HT/PER
                 (F)     (DEG/KT/KT) (MB)    (MI)  (FT/S)
CALUMET HARBOR    61     280/  5/ 12 1015.0R
MICHIGAN CITY     62     260/ 23/ 25   N/A
BURNS HARBOR      63     290/ 17/ 23 1015.2S
SAINT JOSEPH      63     280/ 15/ 22 1015.6
SOUTH LAKE BUOY   63 71  290/ 19/ 25 1012.7R         5/ 5
4 MI NW BRIDGMAN  64 67  290/ 17/ 23 1014.1          5/ 5
MICHIGAN CITY     64 67  300/ 16/ 19   N/A           5/ 5

$$
&&




USA.gov is the U.S. government's official web portal to all federal, state and local government web resources and services.